Weather History for Pine River, MN

Change the Weather History Date:

Saturday, May 11, 2013

  Actual Average Record
Temperature  
Mean Temperature 40 °F -  
Max Temperature 46 °F 61 °F 77 °F (2004)
Min Temperature 30 °F 39 °F 30 °F (2013)
Degree Days  
Heating Degree Days 26    
Moisture  
Dew Point 24 °F    
Average Humidity 54    
Maximum Humidity 81    
Minimum Humidity 32    
Precipitation  
Precipitation 0.00 in - - ()
Sea Level Pressure  
Sea Level Pressure 30.15 in    
Wind  
Wind Speed 12 mph (NNW)    
Max Wind Speed 25 mph    
Max Gust Speed 33 mph    
Visibility 10 miles    
Events Rain    
Averages and records for this station are not official NWS values.
T = Trace of Precipitation, MM = Missing Value Source: NWS Daily Summary

Daily Weather History Graph

Daily Weather History Graph

Search for Another Location

Airport:

Trip Planner

Search our weather history database for the weather conditions in past years. The results will help you decide how hot, cold, wet, or windy it might be!

Date:

Astronomy

May. 11, 2013 Rise Set
Actual Time 5:47 AM CDT 8:40 PM CDT
Civil Twilight 5:12 AM CDT 9:16 PM CDT
Nautical Twilight 4:27 AM CDT 10:01 PM CDT
Astronomical Twilight 3:34 AM CDT 10:55 PM CDT
Moon 6:54 AM CDT (5/11) 10:23 PM CDT (5/11)
Length of Visible Light 16h 03m
Length of Day
14h 53m
Waxing Crescent, 3% of the Moon is Illuminated
May 11
Waxing Crescent
May 17
First Quarter
May 24
Full
May 31
Last Quarter
Jun 8
New

Hourly Weather History & Observations

Time (CDT) Temp. Windchill Dew Point Humidity Pressure Visibility Wind Dir Wind Speed Gust Speed Precip Events Conditions
12:12 AM 42.8 °F 36.6 °F 30.2 °F 61% 30.04 in 10.0 mi North 11.5 mph 16.1 mph N/A   Clear
12:33 AM 42.8 °F 38.0 °F 28.4 °F 57% 30.05 in 10.0 mi North 8.1 mph - N/A   Clear
12:52 AM 42.8 °F 37.5 °F 30.2 °F 61% 30.05 in 10.0 mi NNW 9.2 mph 19.6 mph N/A   Clear
1:13 AM 41.0 °F 34.7 °F 28.4 °F 61% 30.06 in 10.0 mi NNW 10.4 mph 16.1 mph N/A   Clear
1:33 AM 39.2 °F 33.0 °F 28.4 °F 65% 30.06 in 10.0 mi NNW 9.2 mph - N/A   Clear
1:52 AM 39.2 °F 35.0 °F 30.2 °F 70% 30.07 in 10.0 mi NW 5.8 mph - N/A   Clear
2:13 AM 39.2 °F 33.6 °F 28.4 °F 65% 30.07 in 10.0 mi NW 8.1 mph - N/A   Clear
2:32 AM 39.2 °F 32.0 °F 28.4 °F 65% 30.07 in 10.0 mi NNW 11.5 mph 16.1 mph N/A   Clear
2:53 AM 37.4 °F 28.5 °F 26.6 °F 65% 30.07 in 10.0 mi NNW 15.0 mph 20.7 mph N/A   Clear
3:13 AM 37.4 °F 29.8 °F 26.6 °F 65% 30.08 in 10.0 mi NNW 11.5 mph 18.4 mph N/A   Clear
3:33 AM 37.4 °F 30.3 °F 26.6 °F 65% 30.08 in 10.0 mi NNW 10.4 mph 17.3 mph N/A   Clear
3:53 AM 37.4 °F 29.3 °F 26.6 °F 65% 30.09 in 10.0 mi NNW 12.7 mph 18.4 mph N/A   Clear
4:13 AM 37.4 °F 29.3 °F 26.6 °F 65% 30.09 in 10.0 mi NNW 12.7 mph 18.4 mph N/A   Clear
4:33 AM 35.6 °F 29.2 °F 26.6 °F 70% 30.09 in 10.0 mi NW 8.1 mph - N/A   Clear
4:52 AM 35.6 °F 29.2 °F 24.8 °F 65% 30.10 in 10.0 mi NW 8.1 mph - N/A   Scattered Clouds
5:12 AM 37.4 °F 30.8 °F 24.8 °F 60% 30.10 in 10.0 mi NW 9.2 mph - N/A   Mostly Cloudy
5:33 AM 37.4 °F 28.9 °F 28.4 °F 70% 30.10 in 10.0 mi NNW 13.8 mph 20.7 mph N/A   Overcast
5:53 AM 35.6 °F 27.1 °F 30.2 °F 81% 30.11 in 10.0 mi NW 12.7 mph 17.3 mph N/A Rain Light Rain
6:13 AM 35.6 °F 27.5 °F 30.2 °F 81% 30.11 in 10.0 mi NW 11.5 mph 19.6 mph N/A Rain Light Rain
6:33 AM 35.6 °F 28.6 °F 30.2 °F 81% 30.12 in 10.0 mi NW 9.2 mph 16.1 mph N/A   Overcast
6:53 AM 35.6 °F 27.5 °F 30.2 °F 81% 30.12 in 10.0 mi NW 11.5 mph 17.3 mph N/A   Mostly Cloudy
7:12 AM 35.6 °F 26.6 °F 30.2 °F 81% 30.12 in 10.0 mi NNW 13.8 mph 21.9 mph N/A   Overcast
7:33 AM 37.4 °F 29.3 °F 30.2 °F 75% 30.12 in 10.0 mi NW 12.7 mph 20.7 mph N/A   Mostly Cloudy
7:53 AM 37.4 °F 28.2 °F 28.4 °F 70% 30.13 in 10.0 mi NW 16.1 mph 24.2 mph N/A   Mostly Cloudy
8:12 AM 37.4 °F 27.5 °F 28.4 °F 70% 30.13 in 10.0 mi NNW 18.4 mph 28.8 mph N/A   Overcast
8:33 AM 37.4 °F 27.8 °F 24.8 °F 60% 30.14 in 10.0 mi NNW 17.3 mph 28.8 mph N/A   Overcast
8:53 AM 37.4 °F 27.2 °F 26.6 °F 65% 30.15 in 10.0 mi NW 19.6 mph 27.6 mph N/A   Overcast
9:12 AM 37.4 °F 27.5 °F 24.8 °F 60% 30.15 in 10.0 mi NW 18.4 mph 29.9 mph N/A   Overcast
9:32 AM 37.4 °F 27.2 °F 24.8 °F 60% 30.16 in 10.0 mi NNW 19.6 mph 28.8 mph N/A   Overcast
9:53 AM 37.4 °F 28.2 °F 23.0 °F 56% 30.17 in 10.0 mi NW 16.1 mph 26.5 mph N/A   Overcast
10:12 AM 35.6 °F 25.5 °F 24.8 °F 65% 30.17 in 10.0 mi NW 17.3 mph 27.6 mph N/A   Overcast
10:33 AM 37.4 °F 29.8 °F 24.8 °F 60% 30.17 in 10.0 mi NW 11.5 mph 20.7 mph N/A   Overcast
10:52 AM 37.4 °F 29.8 °F 24.8 °F 60% 30.17 in 10.0 mi NW 11.5 mph 19.6 mph N/A   Overcast
11:12 AM 37.4 °F 26.6 °F 21.2 °F 52% 30.17 in 10.0 mi NNW 21.9 mph 31.1 mph N/A   Overcast
11:33 AM 37.4 °F 27.5 °F 21.2 °F 52% 30.18 in 10.0 mi NNW 18.4 mph 27.6 mph N/A   Overcast
11:53 AM 37.4 °F 27.2 °F 21.2 °F 52% 30.18 in 10.0 mi North 19.6 mph 33.4 mph N/A   Overcast
12:12 PM 39.2 °F 29.3 °F 21.2 °F 49% 30.17 in 10.0 mi NNW 20.7 mph 27.6 mph N/A   Overcast
12:32 PM 39.2 °F 29.8 °F 21.2 °F 49% 30.17 in 10.0 mi NNW 18.4 mph 26.5 mph N/A   Overcast
12:53 PM 39.2 °F 30.2 °F 21.2 °F 49% 30.18 in 10.0 mi NW 17.3 mph 27.6 mph N/A   Overcast
1:12 PM 41.0 °F 33.1 °F 21.2 °F 45% 30.18 in 10.0 mi NW 15.0 mph 26.5 mph N/A   Overcast
1:33 PM 42.8 °F 35.8 °F 23.0 °F 46% 30.18 in 10.0 mi NNW 13.8 mph 25.3 mph N/A   Mostly Cloudy
1:53 PM 42.8 °F 34.3 °F 21.2 °F 42% 30.17 in 10.0 mi NNW 19.6 mph 29.9 mph N/A   Mostly Cloudy
2:13 PM 42.8 °F 33.1 °F 21.2 °F 42% 30.17 in 10.0 mi NNW 25.3 mph 29.9 mph N/A   Mostly Cloudy
2:32 PM 44.6 °F 38.4 °F 21.2 °F 39% 30.18 in 10.0 mi NNW 12.7 mph 25.3 mph N/A   Mostly Cloudy
2:53 PM 44.6 °F 36.9 °F 21.2 °F 39% 30.18 in 10.0 mi NNW 18.4 mph 24.2 mph N/A   Overcast
3:12 PM 44.6 °F 36.1 °F 21.2 °F 39% 30.18 in 10.0 mi NNW 21.9 mph 27.6 mph N/A   Mostly Cloudy
3:33 PM 44.6 °F 37.2 °F 21.2 °F 39% 30.18 in 10.0 mi NNW 17.3 mph 26.5 mph N/A   Mostly Cloudy
3:52 PM 44.6 °F 36.6 °F 21.2 °F 39% 30.17 in 10.0 mi NNW 19.6 mph 26.5 mph N/A   Mostly Cloudy
4:13 PM 46.4 °F 39.8 °F 21.2 °F 37% 30.17 in 10.0 mi NW 16.1 mph 23.0 mph N/A   Mostly Cloudy
4:33 PM 44.6 °F 37.2 °F 21.2 °F 39% 30.17 in 10.0 mi NNW 17.3 mph 26.5 mph N/A   Mostly Cloudy
4:52 PM 46.4 °F 40.4 °F 21.2 °F 37% 30.17 in 10.0 mi NW 13.8 mph 25.3 mph N/A   Scattered Clouds
5:12 PM 46.4 °F 38.5 °F 19.4 °F 34% 30.17 in 10.0 mi North 21.9 mph - N/A   Scattered Clouds
5:33 PM 46.4 °F 38.1 °F 19.4 °F 34% 30.17 in 10.0 mi North 24.2 mph 28.8 mph N/A   Scattered Clouds
5:53 PM 46.4 °F 39.5 °F 19.4 °F 34% 30.18 in 10.0 mi North 17.3 mph 24.2 mph N/A   Clear
6:12 PM 46.4 °F 39.5 °F 17.6 °F 32% 30.18 in 10.0 mi NNW 17.3 mph 28.8 mph N/A   Scattered Clouds
6:33 PM 44.6 °F 38.1 °F 17.6 °F 34% 30.18 in 10.0 mi NNW 13.8 mph 27.6 mph N/A   Scattered Clouds
6:53 PM 44.6 °F 38.4 °F 17.6 °F 34% 30.19 in 10.0 mi NNW 12.7 mph 23.0 mph N/A   Clear
7:12 PM 44.6 °F 39.2 °F 19.4 °F 37% 30.19 in 10.0 mi North 10.4 mph 18.4 mph N/A   Clear
7:33 PM 44.6 °F 39.2 °F 19.4 °F 37% 30.19 in 10.0 mi North 10.4 mph 17.3 mph N/A   Clear
7:52 PM 44.6 °F 38.8 °F 17.6 °F 34% 30.19 in 10.0 mi North 11.5 mph 24.2 mph N/A   Clear
8:13 PM 42.8 °F 37.0 °F 19.4 °F 39% 30.19 in 10.0 mi North 10.4 mph 17.3 mph N/A   Clear
8:33 PM 42.8 °F 37.5 °F 19.4 °F 39% 30.19 in 10.0 mi North 9.2 mph - N/A   Clear
9:12 PM 41.0 °F 36.4 °F 19.4 °F 42% 30.20 in 10.0 mi North 6.9 mph - N/A   Clear
9:32 PM 39.2 °F 35.0 °F 19.4 °F 45% 30.20 in 10.0 mi NNW 5.8 mph - N/A   Clear
9:53 PM 39.2 °F 34.2 °F 19.4 °F 45% 30.21 in 10.0 mi North 6.9 mph - N/A   Clear
10:13 PM 39.2 °F 35.0 °F 19.4 °F 45% 30.21 in 10.0 mi NNW 5.8 mph - N/A   Clear
10:32 PM 37.4 °F 33.8 °F 21.2 °F 52% 30.21 in 10.0 mi NNW 4.6 mph - N/A   Clear
11:12 PM 35.6 °F - 19.4 °F 52% 30.21 in 10.0 mi Calm Calm - N/A   Clear
11:32 PM 33.8 °F - 21.2 °F 60% 30.21 in 10.0 mi Calm Calm - N/A   Clear
11:53 PM 30.2 °F - 21.2 °F 69% 30.22 in 10.0 mi Calm Calm - N/A   Clear